Location: Newark
(42.3578°N, 83.0683°W)
Time: 10:31:38
(UTC+00:00)

ISS - Visible Passes

Search period start: 07 April 2020 00:00
Search period end: 17 April 2020 00:00
Orbit: 418 x 423 km, 51.6° (Epoch: 07 April)

Date Brightness Start Highest point End Pass type
(mag) Time Alt. Az. Time Alt. Az. Time Alt. Az.
07 Apr -3.1 00:29:53 10° WNW 00:33:10 53° SW 00:36:28 10° SE visible
08 Apr -0.9 01:21:22 10° WSW 01:22:23 11° SW 01:23:24 10° SSW visible
09 Apr -1.2 00:32:59 10° W 00:35:24 18° SW 00:37:49 10° S visible
